Location: Casteau
(50.5142°N, 4.0161°E)
Time: 23:12:05
(UTC+00:00)

Transit 2A - Pass Details

Date: 01 August 2021
Orbit: 594 x 964 km, 66.7° (Epoch: 26 September)

Event Time Altitude Azimuth Distance (km) Brightness Sun altitude
Rises 06:55:40 0° 229° (SW) 2,850 8.5 24.1°
Reaches altitude 10° 06:57:53 10° 234° (SW) 1,974 7.8 24.4°
Maximum altitude 07:02:14 55° 313° (NW) 777 6.1 25.1°
Drops below altitude 10° 07:06:58 10° 32° (NNE) 2,149 8.8 25.9°
Sets 07:09:28 0° 37° (NE) 3,129 9.6 26.3°
